Location: *
(45.4590°N, 16.3650°E)
Time: 10:39:51
(UTC+00:00)

Cosmos 1939 Rocket - Pass Details

Date: 17 January 2020
Orbit: 534 x 583 km, 97.4° (Epoch: 16 February)

Event Time Altitude Azimuth Distance (km) Brightness Sun altitude
Rises 17:01:01 0° 147° (SSE) 2,676 6.1 -14.0°
Reaches altitude 10° 17:03:13 10° 139° (SE) 1,794 5.2 -14.4°
Maximum altitude 17:06:48 37° 71° (ENE) 849 3.2 -15.0°
Drops below altitude 10° 17:10:27 10° 3° (N) 1,828 5.3 -15.6°
Sets 17:12:42 0° 355° (N) 2,734 6.3 -16.0°
